Wind_Speed
21 23 21 23 33 40 39 36 36 38 41 41 40 39 34 30 28 24 24 32 37 30 23 23 25 25 25 28 30 32 34 36 38 39 39 39 38 38 38 38 37 35 34 33 32 34 34 30 26 26 26 25 23 23 24 24 24 23 22 22 23 23 24 23 23 24 24 23 23 22 21 21 22 23 23 23 22 22 22 22 22 23 24 25 26 26 27
19 22 21 19 25 33 37 38 38 40 43 46 48 48 42 39 36 28 24 31 41 44 36 25 21 23 24 26 29 31 34 36 37 38 37 37 38 38 38 37 36 35 35 34 35 36 33 27 26 27 25 23 23 23 23 23 23 23 22 21 22 22 22 23 24 24 24 24 23 22 22 21 22 23 23 22 22 22 22 23 24 25 25 26 26 27 28
18 22 23 22 23 28 33 36 37 41 45 47 49 51 51 49 45 41 41 38 34 39 41 34 30 27 24 24 28 30 32 35 36 37 37 37 37 37 37 36 35 36 36 37 38 35 30 27 28 26 25 24 24 23 23 23 24 24 23 22 21 21 21 23 24 24 24 24 24 23 22 22 22 22 22 23 23 23 23 24 25 25 26 26 27 28 28
14 17 20 22 25 28 31 34 36 39 42 45 46 47 48 49 47 44 46 46 39 32 33 37 39 33 25 24 26 29 31 34 36 37 37 37 38 38 37 36 37 38 38 39 37 32 29 29 28 26 25 25 24 24 24 24 24 24 23 22 22 21 21 23 24 24 25 25 24 24 23 23 22 22 22 23 24 24 24 25 26 26 27 27 28 29 30
13 14 16 19 24 29 32 35 38 39 42 45 46 47 48 47 47 45 44 46 43 31 28 35 38 32 27 26 27 29 31 33 36 37 37 37 38 37 37 37 39 39 39 39 35 30 30 32 30 27 27 26 25 26 26 25 26 26 25 24 24 22 22 23 24 25 25 25 25 25 24 24 23 23 22 23 24 24 25 26 26 27 28 29 29 30 32
13 13 15 17 20 26 30 32 33 36 40 43 44 47 48 46 45 44 43 43 37 28 29 35 33 28 29 30 31 32 33 35 36 37 37 37 36 36 37 38 40 40 40 38 34 31 33 34 32 30 29 27 27 27 27 27 26 26 26 26 25 24 23 23 23 25 25 25 25 25 25 25 25 24 23 24 25 25 26 27 27 28 29 30 31 32 33
14 14 15 16 18 22 25 28 31 33 36 38 40 41 42 41 39 39 38 35 29 27 32 35 32 30 32 34 33 34 35 35 36 36 37 37 36 36 38 40 41 41 40 37 33 32 34 34 34 33 32 30 29 29 28 27 26 26 26 25 24 24 24 23 23 24 25 25 26 27 27 26 26 25 25 25 25 26 27 28 29 29 30 31 32 33 34
15 12 11 14 16 19 22 25 28 30 32 34 36 36 37 37 37 37 37 31 26 28 32 35 36 37 37 35 33 33 33 33 33 35 37 37 37 38 40 41 41 40 38 35 33 33 34 35 35 35 34 32 31 30 29 28 27 26 26 25 24 24 24 24 25 26 26 27 27 28 28 27 27 26 26 26 27 27 28 29 29 30 30 31 32 33 33
16 11 10 13 15 18 21 23 25 28 30 32 33 33 33 34 34 35 33 27 26 28 32 36 41 42 37 34 32 32 33 33 34 36 38 38 39 39 40 41 40 39 36 34 33 34 35 35 35 35 34 34 33 32 31 29 27 26 26 25 25 25 26 26 27 27 28 28 29 29 29 28 27 27 27 27 27 28 28 29 30 30 30 31 32 33 33
17 13 12 13 14 16 20 22 24 26 27 28 30 29 30 31 31 31 28 25 26 29 32 37 42 41 36 34 33 33 34 34 35 37 38 40 40 40 39 38 36 35 34 33 33 34 34 34 34 34 35 34 34 33 31 29 28 27 27 27 27 27 27 27 27 28 29 29 29 29 29 28 28 27 27 27 27 28 28 29 30 31 31 32 33 34 35
17 15 15 15 14 17 20 21 22 22 22 24 26 26 27 29 28 27 26 25 26 29 32 36 40 39 36 35 35 36 35 34 35 38 39 40 40 39 38 36 34 33 33 33 33 33 33 33 33 33 32 32 32 31 30 30 29 29 28 28 28 28 28 27 27 28 28 28 28 28 28 28 27 27 27 27 27 28 29 29 31 32 32 33 34 34 35
16 15 15 16 16 18 20 20 20 21 21 22 23 24 25 28 27 26 26 25 26 28 31 36 40 39 38 39 39 37 35 35 36 38 40 40 39 39 38 35 34 33 33 33 33 33 33 33 32 30 28 27 26 27 28 29 29 28 28 28 28 28 27 26 26 26 26 26 26 26 27 26 26 26 26 26 27 28 30 31 31 32 33 33 34 34 35
18 16 15 15 16 18 20 21 21 20 20 20 21 23 25 25 25 25 26 26 27 29 31 35 39 40 41 42 37 33 34 37 37 38 40 39 37 36 35 34 33 33 33 33 33 32 32 31 29 27 24 23 22 22 23 24 24 25 26 26 26 25 25 24 24 24 24 25 25 26 26 26 26 26 27 27 29 30 31 32 32 33 33 33 34 35 35
18 18 15 13 14 18 20 22 23 22 21 21 21 22 23 22 21 22 23 24 25 27 29 33 37 40 41 40 35 31 33 36 37 38 39 38 35 33 32 31 32 32 33 33 32 31 30 29 26 24 22 21 21 20 20 20 21 22 23 23 23 23 23 24 24 25 25 26 26 27 27 27 28 28 29 30 31 32 33 33 33 34 34 34 35 35 36
16 17 14 12 16 20 20 21 23 24 23 22 21 19 19 20 20 21 23 24 25 26 29 32 35 37 39 39 36 36 36 36 37 38 37 36 35 32 32 33 34 35 34 33 31 31 30 27 24 22 21 20 20 20 20 20 21 21 21 22 23 24 25 26 26 27 27 28 28 29 29 30 31 31 32 33 33 34 34 34 34 35 35 35 36 36 36
16 19 16 12 15 20 20 20 22 23 22 21 19 18 18 19 20 22 23 24 25 27 29 30 31 34 38 39 39 39 39 38 38 38 38 37 35 33 33 35 35 35 35 33 32 31 29 26 23 22 22 21 21 21 21 21 21 21 22 24 25 26 27 28 29 29 30 31 32 33 33 34 35 35 35 35 36 36 36 35 36 36 36 36 36 36 36
17 20 18 13 13 16 20 21 20 19 19 18 18 18 18 17 19 21 22 23 25 27 28 28 30 33 36 38 38 38 38 37 36 37 37 36 34 33 34 34 34 34 34 33 30 29 27 24 24 24 23 22 22 22 22 22 22 23 25 27 28 29 31 31 32 33 34 35 36 36 37 38 38 37 38 38 38 37 37 37 36 36 36 36 36 36 35
16 18 17 15 13 14 17 19 18 17 18 18 18 18 17 17 18 20 22 23 24 26 27 27 29 33 36 37 37 37 36 35 36 37 36 36 36 35 34 33 33 33 33 31 29 28 26 25 25 25 25 24 24 24 24 24 25 26 27 29 30 32 33 33 34 35 36 36 37 37 38 38 38 38 38 38 38 37 36 36 36 35 35 35 35 34 34
13 16 16 16 15 14 15 16 17 17 18 18 19 18 16 17 18 19 22 24 25 26 27 27 28 32 35 37 38 37 36 36 36 36 35 35 36 36 35 34 34 34 33 32 30 28 27 27 27 27 27 26 26 25 25 26 27 28 29 30 31 32 33 34 34 35 35 36 36 36 37 37 37 37 37 37 36 35 34 34 33 34 34 34 34 33 33
10 12 14 15 15 16 16 16 16 17 17 16 17 18 17 17 18 19 22 25 27 28 28 28 29 30 33 36 38 38 38 37 36 36 35 34 34 35 35 35 35 35 35 33 30 28 27 28 29 29 28 28 28 27 27 29 29 30 31 32 33 34 34 35 35 35 36 36 36 35 35 35 35 35 35 35 33 33 32 32 32 32 33 33 33 33 33
8 11 13 14 15 17 17 16 16 17 17 16 16 17 18 18 19 20 22 24 28 30 31 30 30 31 32 35 37 38 38 36 34 34 35 34 34 35 35 34 35 36 35 33 30 29 29 29 29 29 29 30 29 28 29 30 31 31 32 34 34 35 35 35 36 36 36 36 35 35 34 34 33 33 34 34 33 32 32 32 32 32 32 33 33 33 32
9 10 13 14 15 16 16 17 18 17 18 18 18 18 18 17 17 19 21 23 26 29 32 32 33 32 32 33 35 36 36 34 32 32 32 32 32 33 34 34 34 34 33 32 30 29 30 30 29 29 30 30 30 30 31 32 32 32 33 35 35 35 35 35 35 35 35 35 34 34 33 33 33 33 33 34 33 32 32 32 32 32 32 32 32 32 32
10 10 12 13 13 13 13 16 18 19 18 18 19 19 19 18 17 18 20 22 24 27 30 32 33 34 33 33 33 33 34 33 32 31 31 30 29 28 29 29 29 30 30 29 29 30 31 31 31 31 31 32 31 31 32 33 33 34 35 36 35 34 34 34 33 33 34 34 33 33 32 32 32 32 32 33 32 32 31 31 32 32 32 32 32 32 33
13 12 11 11 11 12 12 14 17 19 19 19 19 19 18 18 18 18 19 21 23 25 28 31 33 34 35 35 34 33 32 32 32 31 31 30 29 28 27 28 28 29 29 29 30 31 31 31 32 33 33 33 33 33 33 34 35 36 36 36 35 35 34 33 32 32 32 31 31 31 31 31 31 31 32 32 32 31 31 31 31 32 31 31 32 34 35
15 14 12 11 11 12 13 13 15 17 19 19 19 19 18 16 16 16 17 20 22 24 26 29 32 34 35 36 36 35 34 33 34 34 32 31 30 29 29 30 30 31 31 32 32 31 30 32 34 36 36 36 36 36 36 37 37 37 37 37 36 36 34 32 31 31 30 30 30 30 30 31 31 31 31 31 31 31 31 32 32 32 32 33 34 35 36
18 18 16 15 13 13 13 13 13 15 17 17 18 17 17 16 15 15 16 18 22 24 26 28 30 33 36 37 37 37 37 37 36 36 35 34 33 32 32 33 33 33 33 34 34 34 33 34 37 39 40 40 40 39 37 37 37 36 37 37 36 36 36 34 31 30 29 30 30 30 30 30 30 30 30 31 31 31 32 32 33 32 33 34 35 36 36
20 21 21 19 16 15 15 14 13 14 16 16 16 16 15 15 15 15 15 17 19 23 26 30 31 32 34 37 38 39 39 39 39 39 38 37 37 36 35 35 35 35 35 36 36 36 37 38 39 41 42 42 41 40 38 38 37 36 36 36 36 36 36 35 32 31 30 30 31 31 30 30 30 30 31 31 31 32 32 32 33 33 34 35 36 36 36
21 22 23 21 18 17 18 17 16 17 17 17 16 17 17 17 18 18 18 18 18 20 23 29 33 34 35 36 38 40 41 42 41 41 40 40 39 39 39 38 38 38 38 38 39 39 40 40 41 42 42 41 40 39 39 40 39 36 36 35 34 33 33 33 32 32 32 31 31 31 31 31 31 31 31 31 31 32 32 32 33 34 35 36 36 36 36
23 23 23 22 20 19 19 19 19 19 18 18 18 18 19 20 21 21 21 21 21 20 20 22 27 32 36 38 39 40 42 42 42 42 41 41 41 41 41 41 41 41 41 41 41 40 39 39 39 38 37 37 38 39 39 39 37 34 34 33 32 31 31 32 33 34 33 33 33 33 32 31 31 31 31 32 32 32 32 33 34 35 36 36 37 36 36
25 24 24 23 22 21 20 20 20 20 19 19 19 19 21 23 23 21 21 22 23 24 23 22 23 25 30 35 39 41 42 42 42 42 41 41 41 41 42 42 42 42 42 41 39 38 37 37 38 37 36 36 37 39 40 39 37 36 36 36 34 33 33 33 34 34 34 34 33 33 32 32 31 31 32 32 32 32 33 34 34 34 35 35 35 34 34
26 25 25 24 23 22 22 22 21 21 21 22 22 22 23 23 21 20 20 22 24 26 26 26 25 25 25 29 33 37 39 40 40 40 40 40 40 40 41 41 42 41 40 39 37 37 38 39 40 39 38 38 38 39 40 40 39 39 38 37 35 33 32 32 33 33 33 32 32 32 32 32 32 32 32 32 32 32 33 33 32 32 33 33 33 33 36
25 25 25 25 24 24 25 25 24 23 23 24 24 25 25 24 22 21 21 23 24 25 26 26 26 27 27 28 30 32 34 36 36 37 37 37 38 38 38 39 39 39 38 38 38 38 39 40 41 40 40 39 39 40 40 39 38 38 37 35 33 32 32 32 32 32 31 31 31 32 32 32 33 33 33 32 31 31 31 32 32 33 34 35 35 37 40
25 25 25 26 27 28 28 26 25 25 25 25 25 26 26 27 27 26 25 25 25 25 24 24 25 26 27 29 30 31 32 33 34 35 35 36 37 38 38 38 39 39 39 39 39 39 39 39 39 39 39 38 38 38 38 38 37 36 35 34 32 32 32 33 33 32 32 32 32 32 32 31 31 30 28 28 29 30 31 33 33 34 36 37 38 39 39
26 25 24 25 28 31 31 29 28 27 27 25 25 26 26 27 26 26 26 27 27 27 25 24 24 25 26 27 28 29 30 31 31 32 33 34 35 36 36 37 38 39 39 39 38 38 38 37 37 37 36 36 36 35 36 36 35 34 34 34 33 33 34 34 34 34 34 34 34 34 33 32 31 29 28 29 31 32 33 34 34 35 36 38 39 39 39
26 27 26 24 24 27 29 30 30 29 27 25 25 25 26 26 26 26 25 25 27 28 28 27 26 26 26 27 28 28 28 29 29 29 30 31 31 32 32 33 34 34 35 35 36 36 36 36 36 35 35 35 35 34 34 34 34 34 35 35 34 34 35 35 35 35 35 36 35 35 34 34 33 33 33 34 34 33 34 34 35 36 37 38 39 39 39
24 26 26 24 23 23 25 26 27 27 27 26 24 24 25 25 25 25 25 25 25 26 27 28 28 28 28 28 28 28 28 29 29 29 29 29 29 30 29 29 30 30 31 31 32 32 33 33 33 33 34 34 34 33 33 34 34 34 34 34 33 34 34 34 34 34 34 34 33 33 33 33 33 33 33 33 33 34 34 35 35 36 36 37 37 37 37
21 22 22 22 22 21 21 22 23 23 24 24 24 25 26 26 26 26 26 25 25 24 24 25 26 27 28 28 29 28 28 28 28 28 28 28 28 28 28 29 29 29 30 30 30 31 31 32 32 32 33 33 32 32 32 33 33 32 32 32 32 32 31 31 31 30 30 30 30 30 30 31 31 32 32 33 34 35 35 36 35 33 32 33 36 37 37
19 19 18 18 18 18 18 18 18 18 19 21 22 23 24 25 26 27 27 26 25 24 24 24 24 24 25 26 27 28 28 28 28 28 28 28 28 28 28 29 29 29 29 29 29 30 30 30 30 31 31 31 31 31 31 32 32 31 31 31 31 31 30 30 30 30 30 29 29 29 30 31 32 33 34 35 35 35 35 35 33 30 30 33 37 39 39
22 22 20 18 18 18 19 18 17 17 18 19 19 20 20 21 22 23 24 25 25 25 25 25 25 25 24 25 26 27 27 27 27 28 28 28 28 28 28 28 28 28 28 28 28 29 29 29 29 29 29 30 30 31 31 32 32 32 31 31 31 30 30 31 32 32 32 31 31 32 32 33 34 35 36 36 35 34 33 32 32 31 31 33 35 37 37
24 24 23 21 21 21 21 20 19 19 19 20 20 20 19 20 20 21 22 23 24 25 25 25 25 25 25 25 25 26 26 26 26 27 27 27 28 28 29 28 27 27 28 28 28 29 29 30 30 30 30 31 31 30 31 32 32 32 31 31 30 29 30 31 33 33 33 32 33 33 32 32 34 35 35 34 33 32 31 31 31 31 32 32 33 34 34
23 23 23 23 22 22 22 22 22 21 21 21 22 22 21 21 22 22 23 23 24 25 25 25 25 26 25 26 26 26 26 27 27 27 27 28 28 28 29 29 27 27 28 29 29 29 30 31 31 31 31 31 31 31 31 32 32 32 32 32 32 31 32 33 35 35 35 35 35 34 32 33 35 35 34 33 32 31 30 29 29 29 30 31 32 32 32
24 24 25 24 23 23 23 23 23 23 23 24 23 23 23 23 23 23 24 24 24 25 25 25 26 26 26 27 27 28 28 28 28 29 29 29 29 30 30 29 28 28 30 30 29 30 31 31 31 32 32 32 32 32 32 32 32 33 33 34 35 35 36 38 38 38 37 36 35 34 33 34 35 34 32 31 30 29 28 28 28 29 30 31 31 31 31
25 25 25 24 24 24 25 24 23 25 26 27 26 25 25 24 24 25 25 25 25 25 25 25 26 27 27 27 28 28 29 29 30 30 31 31 31 31 32 31 30 30 31 31 31 31 32 32 32 32 33 33 33 33 33 34 34 34 34 34 34 35 36 37 36 35 34 34 33 33 32 32 31 30 29 29 29 28 28 28 29 29 30 30 30 30 30
27 25 24 24 25 24 22 21 22 25 27 27 27 27 27 27 26 26 27 27 26 26 26 26 27 27 27 27 27 28 28 29 30 30 31 31 32 32 32 32 31 31 32 32 32 32 32 32 32 33 33 34 34 34 34 35 35 34 34 33 32 31 32 33 32 32 32 32 32 31 30 30 29 28 28 28 28 28 29 29 29 30 29 29 29 30 30
26 25 24 23 24 22 19 17 19 23 25 26 26 27 27 27 28 28 28 28 28 28 28 28 28 28 28 28 28 29 29 29 29 30 30 31 31 32 32 32 32 32 32 32 32 32 32 32 33 33 33 33 34 34 34 34 34 33 32 30 29 29 29 30 29 29 30 30 29 29 29 28 28 28 28 28 29 29 29 29 30 30 29 29 29 29 30
25 26 26 26 25 23 20 19 20 22 24 24 25 25 26 26 27 28 28 28 28 28 28 28 28 28 28 28 28 29 29 29 29 30 30 31 31 31 32 32 32 32 32 32 32 32 32 33 33 33 33 33 34 33 33 32 31 30 28 27 27 27 27 28 28 28 28 27 27 28 28 28 28 29 29 29 29 29 29 30 30 30 30 30 30 29 30
25 26 27 27 27 27 26 25 25 25 25 25 25 25 25 26 26 26 27 27 28 28 28 28 28 28 28 28 28 29 29 29 29 29 29 30 31 31 32 32 33 33 33 33 33 33 33 33 33 33 33 33 32 31 30 29 28 27 26 26 26 26 26 26 27 28 27 27 27 28 28 29 29 30 30 29 29 30 29 29 29 29 29 29 29 30 30
27 27 27 28 28 29 28 27 26 26 26 25 25 25 26 26 25 26 26 26 27 27 27 28 27 27 27 27 27 28 28 28 27 27 27 28 29 30 30 31 32 32 32 32 32 32 32 32 32 32 32 31 30 29 28 27 26 25 25 25 25 25 25 26 27 28 28 28 28 28 29 30 30 30 30 30 29 29 29 29 29 29 29 29 29 29 29
27 27 27 27 28 28 28 27 26 26 25 24 24 24 25 25 26 26 26 26 26 27 27 27 27 28 28 27 27 27 27 26 26 25 25 26 27 27 27 28 29 29 30 30 30 30 31 31 30 30 30 29 28 27 26 26 25 25 25 25 26 26 26 27 28 28 29 29 29 30 30 30 30 29 29 29 28 28 28 28 29 29 29 29 29 29 29
28 26 25 26 27 26 25 25 25 24 24 24 24 24 25 25 25 26 26 26 27 27 27 27 27 27 27 26 26 25 25 25 25 24 24 24 25 25 25 25 26 26 27 27 28 28 28 28 28 28 28 27 26 26 25 25 25 25 26 26 27 28 28 29 29 30 30 30 30 30 30 29 29 28 28 28 28 28 28 28 28 28 28 28 28 28 28
29 26 24 24 24 23 23 23 23 24 24 24 24 25 25 25 25 26 26 27 27 27 27 27 28 27 26 25 24 24 24 24 25 24 24 24 24 24 24 24 25 25 25 25 25 25 25 26 26 26 26 26 26 26 26 26 27 27 28 28 29 29 29 30 30 30 30 30 29 29 28 28 27 27 27 27 28 28 28 28 28 28 27 27 27 27 28
31 30 29 29 27 24 23 22 23 25 26 26 25 24 24 24 25 24 24 25 26 27 27 27 27 26 25 24 24 24 24 24 25 25 25 25 25 25 25 25 25 25 25 25 25 25 25 25 25 26 26 27 27 27 27 28 28 28 28 28 28 28 28 29 29 29 29 29 28 28 27 27 27 27 27 28 28 28 28 28 29 29 29 29 29 29 29
Wind_Direction
186 193 197 207 210 205 201 201 202 204 205 206 208 206 202 204 208 206 206 211 213 211 207 216 226 230 229 224 220 218 217 217 219 219 221 221 219 220 221 221 220 216 212 212 214 220 226 232 238 240 239 237 236 236 237 242 246 248 252 253 251 250 247 245 245 247 249 253 257 260 262 261 260 257 254 252 252 253 255 257 261 264 266 268 270 271 272
183 184 184 197 207 206 206 206 204 204 203 205 210 208 205 208 210 207 206 211 216 217 210 206 216 223 224 222 218 217 217 216 217 218 219 219 218 220 220 220 218 213 209 211 215 221 226 229 230 230 231 232 235 237 240 243 246 248 250 251 251 250 246 244 245 247 250 253 256 259 260 260 259 256 254 253 252 253 254 257 260 263 265 267 269 271 273
180 185 191 201 203 202 207 210 210 210 208 207 210 210 209 210 212 213 212 211 215 216 212 211 215 216 215 215 214 215 216 217 216 216 216 216 216 218 219 217 214 210 209 212 217 221 224 224 223 226 231 235 239 242 245 247 249 249 248 249 249 249 246 245 246 248 250 253 256 259 259 259 258 257 255 253 253 253 255 257 260 262 265 268 270 273 275
178 188 198 207 208 206 207 208 209 209 210 212 214 215 215 216 218 219 218 219 223 216 206 213 219 218 216 215 214 214 215 215 215 214 213 213 213 215 216 214 211 210 211 214 218 221 221 220 223 229 235 239 244 248 250 251 252 251 249 248 248 249 248 248 248 249 251 253 255 257 258 259 259 258 256 255 255 256 256 259 261 264 267 269 272 275 277
180 191 198 203 210 213 213 211 209 207 208 211 214 215 217 217 219 220 218 221 225 216 205 213 218 217 217 217 216 216 215 215 214 212 211 211 211 213 213 211 210 210 213 216 219 222 221 220 226 233 238 243 248 252 253 254 255 254 250 247 247 248 248 248 248 250 252 253 254 256 258 259 260 260 258 257 258 259 260 262 264 266 269 271 273 276 278
181 188 193 199 206 211 212 214 215 213 211 214 216 217 218 218 218 220 220 222 222 212 206 211 212 209 210 213 216 217 215 214 212 211 211 210 210 211 211 210 210 212 215 218 221 223 224 224 230 238 244 248 252 255 257 258 258 256 253 251 249 248 247 247 247 249 251 252 253 256 257 259 260 260 260 260 262 262 263 264 266 267 269 272 274 276 278
180 182 189 198 201 204 207 210 214 215 216 218 220 221 222 222 222 223 224 225 220 208 206 209 207 205 208 212 214 215 213 213 211 209 209 209 208 209 209 208 211 214 217 220 223 225 228 230 234 241 247 251 254 257 259 259 258 256 254 252 249 246 246 246 246 247 249 251 253 255 256 258 259 260 261 262 264 265 266 267 268 269 272 274 276 278 281
175 176 186 195 198 202 206 208 210 213 216 219 222 223 224 224 223 224 224 222 215 207 207 206 205 207 210 212 212 213 213 214 211 208 208 208 207 208 208 209 213 217 220 222 224 226 229 233 238 243 248 252 254 255 256 257 255 251 248 247 245 243 242 243 244 245 247 249 250 253 255 257 258 260 262 263 265 266 268 269 271 272 274 276 278 280 282
173 172 178 190 199 204 205 206 209 210 213 217 220 223 224 224 224 225 224 219 211 208 207 206 207 210 210 209 210 212 213 213 210 209 209 208 208 208 209 212 215 219 222 223 224 227 231 236 241 245 248 250 251 251 253 253 251 246 242 241 241 240 241 242 243 245 247 249 251 253 255 256 258 261 263 264 266 268 270 271 273 275 276 277 279 280 281
172 172 176 185 200 205 204 207 209 209 211 215 219 221 224 225 226 225 223 216 209 209 209 209 211 211 207 206 210 212 212 213 212 210 209 209 209 209 210 213 216 219 221 223 226 230 234 238 242 245 247 249 249 249 249 248 246 242 239 238 239 240 241 243 244 246 249 250 252 254 256 258 260 262 264 266 268 270 271 273 275 276 278 279 280 282 283
173 176 179 183 193 200 203 206 206 206 208 212 216 218 220 223 224 222 219 212 207 209 211 212 214 210 202 204 210 210 210 214 213 211 210 210 210 210 209 212 215 218 221 225 228 232 235 238 242 245 246 248 248 247 245 242 240 239 238 239 240 241 243 245 247 249 251 253 255 257 259 260 261 263 265 267 269 271 272 274 276 277 279 280 281 283 285
178 178 179 183 190 197 202 203 200 201 206 209 212 215 218 221 221 217 213 209 206 209 211 213 214 209 201 205 210 207 207 213 213 211 211 211 212 213 212 212 216 219 222 225 228 232 235 238 241 243 244 245 244 243 241 239 238 238 239 240 242 244 246 248 250 252 253 254 256 257 258 261 262 264 266 268 270 272 274 276 277 278 279 280 281 283 285
181 183 187 190 191 191 194 195 195 197 202 206 210 214 216 219 219 215 210 206 205 208 210 212 213 210 206 208 209 203 204 211 214 213 211 212 214 214 211 211 214 217 220 223 227 232 236 238 239 238 238 239 238 237 237 236 237 238 239 240 243 245 248 249 250 251 252 253 255 257 259 262 264 265 267 269 271 274 276 278 278 278 279 280 282 285 287
184 187 195 201 196 189 188 191 194 196 198 202 208 213 214 214 216 214 208 203 203 207 209 210 212 212 209 210 210 207 208 212 214 214 214 215 215 211 208 209 213 216 220 225 231 235 235 234 233 233 235 236 237 238 238 238 238 240 241 243 245 246 248 250 251 252 253 255 257 260 262 265 267 269 271 273 275 277 278 279 279 280 281 283 284 286 287
192 193 198 197 189 189 189 190 194 199 201 202 204 208 209 207 206 206 203 197 196 201 205 209 211 211 210 209 209 211 213 214 213 213 216 219 218 215 213 214 216 219 223 228 232 233 230 228 230 235 239 241 243 244 244 244 245 246 248 249 249 249 250 252 253 254 256 258 260 264 268 271 274 276 277 278 278 279 279 279 280 280 282 283 284 285 286
198 201 204 191 178 184 188 189 194 200 203 203 202 203 205 202 201 203 199 190 188 193 199 204 206 206 207 208 209 211 214 216 215 214 217 219 219 218 217 217 218 222 226 230 231 228 225 228 236 244 247 249 248 248 248 249 249 250 251 250 250 251 252 253 255 257 260 264 267 271 275 278 280 280 280 280 279 279 280 279 279 280 281 282 284 285 285
203 204 207 202 189 188 188 189 195 200 201 205 205 203 204 202 201 204 197 185 183 188 192 196 200 202 204 205 207 209 212 214 212 212 214 217 217 219 221 222 225 228 230 232 229 224 225 234 243 249 252 253 252 250 250 251 252 253 254 254 255 255 256 258 261 263 267 270 273 276 278 280 280 280 280 279 279 278 278 278 278 279 281 281 283 284 285
208 207 209 206 199 193 188 190 198 199 200 207 209 206 206 204 201 202 197 189 186 189 189 192 198 203 204 204 206 209 212 213 211 211 214 217 219 221 224 227 230 233 236 236 231 226 230 239 245 251 254 254 254 254 255 256 257 259 261 262 263 263 264 266 268 270 272 275 277 278 279 279 279 279 278 278 277 276 276 276 277 279 280 280 282 283 283
210 210 209 206 204 202 194 193 197 199 200 207 209 208 209 208 206 204 201 196 193 192 193 194 198 204 207 207 208 211 214 216 218 218 219 221 222 223 225 227 230 234 236 236 234 233 237 244 249 253 255 256 257 260 262 264 265 266 268 269 270 271 272 273 274 275 276 277 278 278 279 279 279 279 277 276 275 274 274 275 276 278 279 279 280 281 282
212 207 205 208 212 211 205 201 200 200 201 206 209 207 206 209 210 207 202 200 199 198 199 199 200 204 209 210 211 213 215 220 225 226 226 226 227 227 225 226 229 233 234 233 234 239 245 249 251 252 253 256 261 265 268 269 270 271 273 274 275 276 277 277 277 277 277 277 277 278 278 279 279 278 276 275 273 273 273 274 275 276 277 278 279 281 283
200 196 200 208 213 214 212 211 208 204 204 207 207 202 200 202 208 207 203 201 203 203 204 205 205 206 209 213 215 216 218 223 228 229 229 232 234 233 230 228 231 235 237 236 237 243 247 248 248 250 254 259 264 268 270 271 272 274 275 276 277 277 277 277 277 277 277 276 276 276 276 277 277 276 275 273 272 272 273 274 275 276 276 278 280 283 286
191 197 205 207 208 213 215 214 212 212 214 212 206 200 199 201 205 207 204 201 203 206 207 208 210 210 211 213 216 218 221 225 229 230 230 232 235 236 235 234 236 239 240 237 237 241 244 247 250 254 259 263 266 269 271 272 273 275 276 276 276 276 276 276 276 276 275 275 274 274 275 275 275 275 273 273 272 272 273 274 275 276 277 280 283 286 287
202 211 214 208 206 211 212 210 212 217 221 217 208 205 209 212 213 211 206 202 204 207 208 209 211 213 214 215 217 220 222 225 230 234 234 234 236 236 235 234 237 239 240 239 240 244 248 252 256 259 262 264 266 269 271 273 274 275 276 276 275 274 274 274 273 273 273 273 273 273 273 273 273 272 272 272 273 273 274 275 276 277 280 283 285 286 286
215 215 212 206 208 213 210 208 212 217 220 219 215 213 216 217 217 215 211 208 207 207 208 210 211 213 216 217 219 221 222 224 228 233 237 239 239 239 237 236 238 241 244 246 247 248 251 255 259 261 263 266 268 270 272 274 276 277 276 275 272 270 270 270 271 271 271 271 271 270 271 271 272 271 272 273 274 275 276 277 278 280 282 283 283 284 285
225 218 215 215 218 219 215 212 215 218 219 218 217 217 218 218 218 219 218 214 211 209 210 211 212 214 217 218 220 222 223 224 227 230 235 240 241 242 242 242 242 244 247 249 251 254 257 261 264 266 268 270 272 272 273 274 275 275 273 270 268 267 267 269 270 270 270 270 269 269 269 271 272 273 274 275 276 277 277 279 280 281 281 281 281 283 285
230 231 234 231 225 225 226 223 222 225 225 222 220 220 221 221 222 223 222 218 216 215 215 214 214 215 217 219 221 223 224 225 227 229 233 237 239 242 244 246 248 251 253 255 258 262 266 268 268 270 271 272 272 272 271 271 269 267 265 264 265 266 267 267 268 269 269 269 269 270 271 272 273 274 275 275 276 277 278 279 280 280 279 279 280 282 283
231 235 239 237 231 230 234 234 231 231 232 230 228 227 225 224 223 223 224 222 222 223 224 221 217 216 217 219 221 223 225 226 228 229 232 235 238 241 244 248 251 255 258 261 263 266 268 269 269 270 270 271 271 271 270 266 263 262 263 264 266 267 265 263 264 267 269 270 271 272 273 274 274 274 275 276 277 278 279 279 279 278 277 278 280 282 284
229 233 238 240 237 233 232 234 235 233 232 232 230 230 232 234 233 233 234 233 229 229 230 229 224 220 219 220 222 223 225 227 229 230 233 235 238 241 245 248 251 254 257 260 263 265 266 268 268 268 268 269 269 269 268 266 265 264 264 265 265 265 262 260 262 267 269 270 271 272 273 274 275 276 277 278 279 279 279 278 277 277 277 279 281 282 283
230 233 237 242 242 235 231 232 234 234 234 234 232 231 235 238 237 236 237 238 236 235 237 237 233 227 224 223 223 225 226 228 229 232 235 237 240 243 246 248 250 252 254 257 259 260 262 263 264 265 266 267 266 264 264 267 266 262 262 266 267 266 264 264 266 268 268 268 269 270 272 274 275 276 277 278 278 277 276 275 275 277 278 280 280 281 281
232 235 239 243 244 241 236 234 234 235 234 233 232 234 236 237 235 233 234 236 238 240 242 243 240 235 231 227 226 226 228 230 231 233 236 239 241 244 246 247 249 250 252 253 255 256 258 259 260 262 263 264 263 262 262 265 265 262 264 269 270 268 268 268 268 268 268 269 270 271 272 273 274 274 274 274 274 274 274 274 275 278 280 280 278 278 281
234 237 240 241 242 242 242 240 239 238 235 232 231 232 233 232 231 233 235 237 240 242 243 243 241 239 236 232 229 229 231 233 234 236 238 241 243 245 247 248 249 250 251 252 253 254 256 257 257 258 259 260 260 261 261 263 264 264 265 267 267 267 267 267 266 267 269 270 272 273 274 274 273 272 272 272 272 272 272 273 274 278 280 279 277 278 283
236 238 242 244 243 243 245 245 243 240 237 235 235 234 232 232 236 241 243 242 241 241 241 241 241 240 236 233 231 230 232 234 236 238 240 242 244 245 247 248 249 250 250 251 251 252 253 254 254 254 255 256 256 258 259 260 262 263 264 264 264 266 266 266 267 268 270 271 273 274 274 275 274 274 272 270 269 269 270 271 273 276 277 278 278 281 285
236 237 242 245 245 245 246 246 245 243 241 240 240 238 236 237 242 246 246 243 240 240 240 240 241 240 238 235 233 232 232 234 236 237 239 240 241 243 245 246 247 248 248 249 249 249 250 250 251 252 253 254 255 256 257 259 260 262 263 263 264 265 266 267 269 271 272 273 274 274 274 275 276 274 270 268 268 269 270 271 274 276 277 279 281 284 287
237 239 243 247 248 248 247 246 246 247 246 243 241 238 237 238 240 242 242 240 239 239 240 241 241 240 239 237 236 235 235 237 239 240 241 242 243 244 246 246 247 247 248 248 248 249 249 250 251 252 254 256 257 257 258 260 261 263 264 265 267 268 269 270 271 273 273 273 273 273 273 272 272 269 268 270 272 273 272 274 276 278 281 283 285 287 289
236 236 240 245 250 251 251 250 250 251 251 248 245 242 241 241 241 242 242 242 241 241 242 243 243 244 242 239 238 238 239 240 242 244 246 248 248 249 250 250 250 250 249 249 249 249 251 252 254 255 257 257 258 259 260 262 264 265 267 268 269 270 271 272 273 273 273 272 272 272 270 269 268 268 269 272 274 273 273 275 277 280 282 284 286 288 288
232 230 233 239 246 250 251 251 251 252 252 252 252 251 248 245 244 245 245 245 245 246 247 247 247 247 246 244 242 241 241 242 245 247 250 252 252 253 254 254 254 253 252 252 252 253 254 255 256 257 258 258 259 261 262 263 264 266 268 270 271 272 272 273 273 273 272 272 271 270 269 268 268 268 270 271 272 273 274 276 279 281 284 286 287 288 287
233 231 232 237 242 245 247 245 243 243 243 244 246 248 250 249 248 248 248 247 247 249 252 254 253 251 249 246 244 244 244 245 247 249 251 252 253 254 255 255 255 255 255 255 255 256 257 258 258 258 259 260 261 261 261 262 264 265 267 269 270 270 271 271 271 270 270 269 268 268 267 268 268 269 270 271 272 274 276 278 279 281 282 283 283 283 284
230 226 228 235 241 245 248 247 243 240 240 239 240 242 244 244 244 243 244 245 246 248 251 253 253 252 249 247 245 245 245 246 248 249 251 252 254 256 256 256 256 256 256 257 257 258 258 259 259 259 260 262 263 263 264 265 266 267 267 268 268 269 269 269 268 268 267 267 268 268 268 269 270 271 272 273 275 277 278 279 278 275 270 269 273 279 284
235 235 240 247 249 250 253 254 253 250 249 248 248 247 244 241 240 240 241 243 245 247 249 250 250 250 249 247 246 245 244 245 247 248 251 253 255 256 257 256 256 257 257 257 258 258 258 259 259 260 261 262 264 264 266 267 268 268 268 269 270 270 270 269 268 267 266 267 269 270 272 274 275 276 276 276 278 278 278 277 276 274 271 272 275 281 285
246 247 249 252 253 254 256 256 255 253 253 253 253 253 251 248 247 246 245 246 246 247 248 249 250 251 250 250 249 248 246 246 247 248 250 252 254 255 256 256 256 256 256 256 256 256 257 258 259 260 261 262 262 263 264 265 266 267 267 267 268 268 268 268 267 266 266 268 270 272 275 276 276 276 276 276 276 275 274 273 273 274 276 278 280 283 285
249 249 250 252 255 258 258 257 256 257 256 255 254 254 254 253 252 252 251 251 251 251 251 251 252 252 253 253 253 253 252 251 251 251 251 251 252 253 255 255 255 255 255 255 255 256 257 258 259 260 260 261 261 261 261 262 263 264 265 264 264 263 263 264 266 268 270 271 271 271 270 268 269 270 272 273 273 272 271 271 273 274 276 278 281 284 287
250 251 252 253 255 256 257 258 260 261 260 259 259 258 257 256 256 255 255 255 254 254 254 254 254 254 254 254 255 255 255 255 255 254 253 253 253 254 255 255 254 254 255 256 256 257 257 258 259 259 260 260 261 261 261 263 263 263 263 263 263 262 263 264 266 269 270 269 268 267 265 265 266 268 269 269 268 268 268 270 271 273 275 278 282 285 289
252 253 254 253 253 255 257 258 258 259 260 260 261 260 259 258 258 257 257 257 256 256 256 255 255 254 254 254 254 255 256 256 256 256 256 256 256 256 256 256 255 255 256 257 257 258 259 259 260 261 261 261 262 262 263 264 264 264 265 265 266 267 267 266 266 267 267 267 266 266 266 265 265 264 264 263 264 265 268 269 271 273 276 279 283 286 289
253 252 253 253 253 255 256 256 255 256 258 259 260 260 259 259 258 258 257 257 256 256 256 255 255 255 255 254 254 255 256 256 257 258 258 258 257 257 257 257 257 257 257 258 258 259 260 261 261 262 262 263 263 264 264 264 264 265 266 267 265 264 264 265 265 265 265 265 265 265 264 263 262 261 261 261 263 266 268 270 272 274 277 280 283 286 289
256 253 252 252 252 253 253 252 253 254 256 256 257 257 258 257 257 258 258 258 257 258 257 257 257 257 256 256 256 256 256 256 257 257 258 258 259 259 259 259 258 258 258 258 259 260 261 262 262 263 264 264 264 264 265 265 266 265 265 263 260 259 260 263 264 265 264 264 264 263 261 261 261 261 262 264 266 268 270 272 274 276 279 281 284 287 289
255 256 254 253 252 251 249 249 251 255 257 259 259 258 258 257 257 257 258 258 258 259 259 259 259 259 259 258 258 257 257 257 257 257 257 258 258 258 258 258 258 259 259 259 260 261 261 262 262 263 263 264 264 265 265 265 264 261 259 258 257 258 260 261 263 263 263 263 262 262 262 262 263 265 266 268 269 271 272 274 276 278 280 282 285 287 288
250 254 255 253 252 251 251 251 254 257 260 261 261 261 259 258 258 258 258 258 259 259 259 260 260 260 259 259 259 258 258 258 258 258 257 257 257 257 258 258 258 259 259 259 260 260 260 261 261 262 262 262 263 263 262 260 258 256 255 256 257 259 260 261 262 263 263 263 262 262 263 265 266 267 268 270 271 272 274 276 277 279 281 283 285 286 288
246 249 253 254 254 254 254 254 255 257 258 260 261 261 261 260 259 258 258 258 258 258 258 258 258 258 258 258 258 258 258 258 259 259 259 258 258 258 258 258 258 258 259 259 259 260 260 260 260 260 260 259 258 257 255 252 252 252 254 256 258 259 260 261 263 264 265 265 265 266 267 268 269 270 271 272 273 274 275 277 278 279 281 282 283 285 286
248 248 251 254 255 255 255 255 255 256 257 257 258 259 259 260 260 259 258 258 257 257 257 257 257 257 257 257 258 258 258 257 258 259 260 260 260 260 259 259 259 259 259 259 259 259 260 259 259 257 256 253 251 250 249 249 250 252 255 257 260 262 263 264 266 267 268 268 269 270 271 271 272 272 273 273 274 275 276 277 278 279 280 281 282 283 284
251 254 256 256 255 255 255 254 254 255 254 253 253 254 255 257 257 257 257 257 256 256 257 257 257 257 257 258 259 259 259 258 258 259 259 260 261 261 260 260 259 259 259 259 259 259 258 258 256 254 251 249 247 247 247 250 253 256 259 261 263 265 266 267 267 268 269 269 270 270 271 271 271 272 273 273 274 275 276 277 277 278 279 281 282 283 284
247 252 253 249 248 251 252 251 250 251 251 251 251 252 253 254 255 255 255 255 255 255 255 255 256 256 256 256 256 257 258 259 259 260 260 261 261 261 260 259 258 257 256 256 256 255 255 254 253 251 249 248 248 249 250 253 256 259 262 263 265 265 266 267 267 268 268 269 268 268 269 269 270 271 272 273 274 275 276 277 278 279 280 280 281 282 283
239 239 234 232 237 248 254 252 250 250 250 251 253 256 257 257 258 258 258 258 257 256 255 255 255 255 254 253 253 254 255 256 258 259 260 261 261 261 261 260 258 256 254 253 252 251 251 250 250 250 250 250 251 253 255 257 259 261 263 264 265 266 266 266 266 266 266 266 266 267 267 268 269 270 271 272 273 275 276 277 278 279 279 280 280 281 281
Height
5619 5623 5628 5631 5632 5635 5639 5642 5645 5649 5652 5656 5659 5662 5668 5672 5675 5680 5684 5686 5689 5694 5698 5699 5700 5702 5703 5705 5708 5709 5711 5713 5715 5718 5721 5723 5726 5730 5734 5737 5740 5743 5746 5748 5750 5752 5753 5755 5757 5759 5760 5762 5763 5764 5764 5765 5765 5766 5766 5767 5767 5768 5768 5769 5769 5770 5770 5771 5772 5772 5773 5773 5773 5773 5773 5774 5774 5774 5775 5775 5775 5775 5775 5775 5775 5775 5774
5619 5624 5628 5630 5631 5634 5637 5641 5644 5648 5650 5653 5655 5659 5663 5667 5671 5675 5679 5682 5685 5689 5694 5697 5697 5698 5700 5702 5704 5706 5708 5710 5712 5715 5718 5721 5724 5728 5731 5735 5738 5740 5743 5745 5747 5748 5750 5753 5755 5756 5758 5759 5760 5761 5762 5762 5763 5763 5764 5764 5764 5765 5766 5766 5767 5767 5768 5768 5769 5769 5770 5770 5770 5770 5771 5772 5772 5772 5772 5772 5772 5772 5772 5772 5772 5772 5771
5619 5623 5626 5628 5631 5634 5637 5640 5643 5646 5648 5651 5653 5657 5660 5663 5666 5670 5674 5678 5681 5685 5691 5694 5694 5695 5697 5700 5701 5704 5706 5708 5710 5713 5716 5719 5723 5726 5729 5732 5735 5738 5740 5742 5743 5746 5749 5751 5752 5754 5755 5756 5757 5758 5759 5760 5760 5760 5761 5761 5761 5762 5763 5763 5764 5764 5765 5766 5766 5767 5767 5768 5768 5768 5769 5769 5769 5769 5770 5770 5770 5770 5769 5769 5769 5768 5768
5619 5622 5625 5628 5631 5633 5635 5637 5640 5644 5647 5650 5653 5657 5660 5663 5666 5670 5674 5676 5679 5684 5689 5691 5691 5694 5697 5699 5700 5702 5704 5705 5707 5710 5713 5717 5720 5723 5726 5729 5732 5735 5737 5739 5741 5744 5747 5749 5750 5751 5752 5753 5754 5755 5756 5757 5757 5758 5759 5759 5759 5759 5760 5760 5761 5762 5762 5763 5764 5764 5765 5765 5765 5766 5766 5766 5766 5767 5767 5767 5767 5766 5766 5766 5766 5765 5765
5619 5621 5624 5627 5630 5631 5633 5636 5639 5642 5645 5648 5651 5654 5657 5660 5663 5667 5671 5673 5677 5684 5688 5688 5690 5694 5696 5697 5699 5700 5701 5703 5705 5708 5711 5714 5718 5721 5724 5727 5730 5732 5734 5736 5739 5742 5744 5746 5747 5748 5749 5750 5751 5752 5752 5754 5754 5755 5756 5756 5757 5757 5758 5758 5759 5759 5760 5760 5761 5761 5762 5762 5762 5763 5763 5763 5763 5764 5764 5764 5763 5763 5763 5763 5762 5762 5761
5618 5621 5624 5626 5628 5630 5633 5637 5640 5642 5645 5647 5649 5651 5654 5658 5661 5665 5668 5671 5677 5684 5686 5685 5688 5692 5693 5694 5696 5697 5699 5700 5702 5705 5709 5712 5715 5719 5722 5725 5727 5729 5731 5734 5737 5739 5741 5743 5744 5744 5745 5747 5748 5748 5749 5750 5751 5752 5753 5753 5754 5755 5755 5756 5756 5757 5757 5758 5758 5758 5759 5759 5760 5760 5760 5760 5760 5761 5761 5760 5760 5760 5759 5759 5759 5758 5757
5619 5621 5623 5625 5627 5629 5633 5636 5639 5641 5644 5646 5649 5651 5654 5658 5662 5665 5668 5672 5678 5682 5683 5684 5688 5690 5689 5690 5693 5695 5697 5699 5700 5703 5706 5709 5713 5717 5720 5722 5724 5726 5728 5732 5734 5737 5738 5739 5740 5741 5742 5743 5744 5745 5746 5747 5748 5749 5750 5750 5751 5752 5752 5753 5753 5754 5754 5755 5755 5755 5756 5756 5757 5757 5757 5758 5758 5758 5757 5757 5756 5756 5756 5755 5755 5754 5754
5619 5621 5623 5625 5627 5629 5632 5634 5637 5640 5643 5645 5647 5650 5653 5657 5660 5663 5666 5671 5676 5678 5680 5683 5685 5685 5685 5688 5692 5694 5696 5697 5699 5702 5705 5708 5711 5714 5717 5719 5721 5724 5727 5730 5732 5734 5735 5736 5737 5738 5739 5740 5741 5741 5742 5743 5745 5746 5746 5747 5748 5749 5749 5750 5750 5750 5751 5752 5752 5752 5752 5753 5753 5754 5754 5754 5754 5754 5754 5753 5753 5752 5752 5752 5751 5751 5750
5619 5621 5623 5625 5627 5629 5631 5633 5635 5638 5641 5643 5646 5649 5652 5655 5658 5661 5665 5671 5674 5676 5677 5679 5679 5680 5684 5688 5691 5693 5694 5696 5698 5701 5703 5706 5708 5711 5714 5716 5719 5722 5724 5727 5729 5731 5732 5733 5734 5735 5736 5736 5737 5738 5739 5740 5742 5742 5743 5744 5744 5745 5746 5746 5747 5747 5748 5748 5749 5749 5749 5750 5750 5750 5751 5751 5751 5751 5751 5750 5749 5749 5749 5748 5748 5747 5746
5619 5621 5623 5625 5627 5628 5630 5632 5634 5637 5640 5642 5645 5648 5651 5653 5656 5660 5665 5669 5672 5673 5675 5675 5676 5678 5683 5688 5689 5691 5693 5694 5697 5699 5701 5703 5706 5708 5711 5714 5717 5720 5722 5725 5726 5728 5729 5730 5730 5731 5732 5733 5734 5735 5736 5737 5738 5739 5739 5740 5741 5741 5742 5743 5743 5744 5744 5745 5745 5746 5746 5746 5747 5747 5747 5748 5748 5747 5747 5747 5746 5745 5745 5745 5744 5743 5742
5619 5621 5622 5624 5625 5627 5629 5631 5634 5637 5639 5641 5644 5647 5649 5652 5655 5659 5663 5666 5669 5671 5672 5673 5674 5678 5684 5686 5686 5688 5691 5693 5695 5697 5699 5701 5704 5706 5709 5712 5715 5718 5720 5722 5723 5724 5725 5726 5727 5728 5729 5730 5731 5732 5733 5734 5734 5735 5736 5737 5737 5738 5739 5740 5740 5741 5742 5742 5742 5743 5743 5743 5744 5744 5744 5744 5744 5744 5743 5743 5743 5742 5741 5741 5740 5739 5738
5620 5621 5622 5623 5624 5627 5629 5631 5634 5636 5638 5640 5643 5646 5647 5649 5652 5656 5659 5663 5666 5668 5670 5671 5673 5677 5681 5681 5681 5685 5690 5691 5693 5695 5697 5699 5702 5704 5707 5710 5713 5716 5717 5719 5720 5721 5722 5723 5724 5725 5726 5727 5728 5729 5729 5730 5731 5732 5733 5733 5734 5735 5736 5737 5737 5738 5738 5739 5739 5739 5740 5740 5740 5741 5741 5741 5740 5740 5739 5739 5739 5738 5737 5737 5736 5735 5734
5620 5621 5622 5623 5624 5626 5628 5630 5632 5635 5638 5640 5642 5644 5645 5648 5650 5653 5655 5660 5663 5666 5667 5669 5671 5675 5677 5678 5680 5685 5688 5689 5691 5693 5695 5697 5700 5703 5706 5708 5711 5713 5714 5716 5717 5718 5718 5720 5721 5723 5724 5725 5725 5726 5727 5727 5728 5729 5730 5730 5731 5732 5733 5733 5734 5735 5735 5735 5735 5736 5736 5737 5737 5737 5737 5737 5736 5736 5735 5735 5734 5734 5733 5732 5731 5730 5730
5620 5621 5622 5622 5624 5626 5627 5628 5631 5634 5636 5638 5640 5642 5644 5646 5649 5650 5652 5657 5661 5664 5666 5667 5668 5671 5675 5678 5681 5685 5686 5687 5689 5690 5692 5695 5697 5699 5702 5705 5707 5709 5710 5712 5713 5714 5716 5718 5719 5720 5721 5722 5723 5723 5724 5725 5725 5726 5727 5728 5729 5729 5730 5730 5731 5732 5732 5732 5732 5733 5733 5733 5733 5734 5734 5733 5732 5731 5731 5730 5730 5729 5728 5727 5727 5726 5725
5620 5621 5622 5622 5623 5625 5627 5628 5630 5632 5634 5636 5639 5641 5643 5645 5647 5648 5649 5653 5658 5661 5663 5664 5666 5669 5673 5676 5679 5682 5683 5685 5687 5689 5691 5692 5693 5695 5698 5701 5703 5705 5706 5708 5710 5712 5713 5715 5716 5717 5718 5719 5720 5721 5721 5722 5723 5723 5725 5725 5726 5726 5727 5727 5728 5728 5728 5728 5729 5729 5729 5729 5729 5729 5729 5728 5728 5727 5726 5726 5725 5724 5723 5723 5722 5721 5721
5619 5620 5621 5622 5623 5625 5627 5629 5630 5631 5634 5637 5639 5640 5642 5644 5645 5647 5648 5651 5655 5658 5660 5662 5664 5667 5671 5674 5676 5679 5681 5683 5685 5687 5689 5690 5691 5693 5695 5697 5699 5701 5703 5704 5706 5709 5710 5712 5713 5714 5715 5716 5717 5718 5718 5719 5720 5721 5722 5722 5723 5723 5724 5724 5724 5724 5724 5725 5725 5725 5725 5724 5724 5724 5724 5723 5723 5722 5722 5721 5720 5719 5719 5718 5717 5717 5716
5618 5619 5621 5622 5624 5626 5627 5628 5630 5632 5635 5637 5638 5639 5641 5643 5645 5647 5648 5650 5653 5655 5657 5660 5662 5665 5668 5671 5674 5676 5678 5681 5683 5685 5687 5688 5690 5692 5694 5696 5698 5699 5701 5702 5704 5706 5708 5709 5710 5711 5712 5713 5714 5714 5715 5716 5717 5718 5718 5719 5719 5720 5720 5720 5720 5720 5720 5720 5720 5720 5720 5720 5720 5719 5719 5718 5718 5717 5717 5716 5715 5715 5714 5713 5713 5712 5711
5618 5619 5621 5623 5625 5626 5627 5629 5630 5632 5634 5635 5637 5639 5640 5642 5644 5646 5648 5649 5652 5654 5656 5658 5660 5663 5665 5668 5671 5673 5676 5678 5680 5682 5684 5686 5689 5691 5693 5694 5696 5697 5699 5701 5702 5704 5705 5706 5707 5707 5708 5709 5710 5711 5712 5713 5714 5714 5714 5714 5715 5715 5716 5716 5716 5716 5716 5716 5716 5715 5715 5715 5715 5714 5713 5713 5712 5712 5711 5711 5710 5710 5709 5709 5708 5707 5707
5619 5620 5621 5623 5624 5626 5627 5628 5629 5631 5632 5633 5635 5637 5639 5641 5643 5645 5646 5648 5651 5652 5654 5656 5659 5661 5663 5666 5668 5671 5673 5675 5677 5679 5681 5684 5686 5688 5690 5691 5692 5693 5695 5697 5699 5700 5701 5702 5702 5704 5704 5705 5706 5707 5708 5709 5709 5710 5710 5710 5710 5710 5711 5711 5711 5711 5711 5711 5711 5711 5710 5710 5709 5709 5708 5708 5707 5707 5707 5706 5706 5706 5705 5704 5704 5703 5702
5619 5620 5621 5622 5623 5625 5626 5627 5628 5629 5631 5632 5634 5636 5638 5640 5641 5642 5644 5646 5649 5651 5652 5654 5656 5659 5661 5664 5666 5668 5670 5672 5674 5676 5678 5680 5682 5684 5686 5688 5689 5689 5691 5693 5695 5696 5697 5698 5699 5700 5701 5701 5703 5704 5705 5705 5705 5705 5705 5705 5705 5705 5706 5706 5706 5707 5707 5707 5706 5706 5706 5705 5705 5704 5703 5703 5703 5702 5702 5702 5702 5701 5701 5700 5699 5698 5698
5618 5618 5619 5621 5622 5624 5625 5626 5628 5629 5630 5631 5632 5633 5635 5637 5639 5641 5642 5644 5646 5648 5650 5652 5654 5657 5659 5661 5663 5665 5667 5669 5671 5673 5674 5677 5679 5681 5683 5685 5686 5686 5687 5690 5692 5693 5693 5694 5695 5696 5697 5698 5699 5701 5701 5700 5701 5701 5701 5701 5701 5701 5701 5702 5702 5702 5702 5701 5701 5701 5701 5701 5700 5700 5699 5698 5698 5698 5698 5698 5697 5697 5696 5695 5695 5694 5694
5617 5617 5618 5619 5621 5622 5623 5625 5626 5628 5628 5629 5630 5632 5633 5635 5637 5639 5640 5642 5644 5646 5648 5650 5653 5654 5656 5658 5660 5661 5663 5665 5667 5668 5671 5674 5676 5677 5678 5680 5682 5682 5684 5686 5688 5689 5690 5691 5692 5693 5693 5694 5695 5696 5696 5696 5697 5697 5696 5696 5696 5697 5697 5697 5697 5697 5696 5696 5696 5696 5696 5696 5696 5695 5694 5694 5694 5694 5694 5693 5693 5692 5692 5691 5691 5690 5689
5616 5616 5617 5619 5620 5620 5621 5622 5624 5625 5626 5627 5629 5630 5632 5633 5635 5636 5638 5639 5641 5644 5646 5648 5650 5652 5654 5656 5657 5659 5660 5662 5663 5665 5667 5670 5672 5673 5674 5676 5678 5679 5680 5682 5684 5685 5686 5687 5688 5689 5690 5690 5691 5692 5693 5692 5692 5692 5692 5692 5692 5692 5692 5692 5692 5692 5692 5692 5692 5692 5691 5691 5691 5691 5690 5690 5690 5690 5689 5689 5688 5688 5688 5687 5686 5685 5684
5614 5615 5616 5618 5619 5619 5619 5620 5622 5623 5624 5626 5627 5628 5629 5631 5632 5634 5635 5637 5639 5641 5643 5645 5647 5649 5651 5653 5655 5656 5658 5660 5661 5662 5664 5666 5667 5669 5670 5673 5674 5675 5677 5679 5681 5682 5683 5683 5683 5684 5685 5686 5687 5688 5688 5688 5687 5687 5687 5687 5687 5687 5687 5687 5687 5687 5687 5687 5687 5687 5687 5687 5686 5686 5686 5686 5686 5685 5685 5684 5684 5684 5683 5682 5681 5680 5679
5613 5614 5615 5617 5618 5619 5619 5619 5620 5621 5622 5624 5625 5626 5627 5628 5630 5631 5633 5635 5636 5638 5640 5642 5644 5646 5648 5650 5652 5654 5655 5657 5658 5660 5661 5662 5664 5666 5667 5669 5670 5672 5674 5675 5676 5678 5679 5679 5679 5679 5680 5681 5682 5683 5684 5683 5683 5683 5683 5682 5682 5682 5682 5683 5683 5683 5683 5683 5682 5682 5682 5682 5682 5682 5682 5682 5681 5681 5681 5680 5680 5679 5679 5678 5677 5676 5674
5611 5612 5613 5615 5616 5617 5617 5618 5619 5619 5620 5621 5622 5623 5624 5626 5628 5629 5631 5632 5634 5636 5637 5639 5641 5643 5645 5647 5649 5650 5652 5653 5655 5656 5658 5659 5660 5662 5663 5665 5666 5667 5669 5671 5672 5673 5674 5675 5674 5674 5674 5675 5676 5677 5678 5678 5678 5677 5677 5677 5677 5678 5678 5678 5678 5678 5679 5678 5678 5678 5678 5678 5678 5678 5677 5677 5677 5677 5676 5676 5675 5675 5674 5673 5672 5671 5670
5610 5610 5611 5612 5614 5615 5615 5616 5617 5618 5618 5619 5620 5621 5622 5624 5625 5626 5628 5630 5631 5633 5634 5635 5637 5638 5641 5643 5645 5647 5648 5650 5651 5653 5654 5656 5657 5659 5660 5661 5662 5663 5664 5665 5667 5668 5669 5670 5670 5669 5669 5670 5671 5671 5672 5672 5672 5672 5672 5672 5672 5673 5673 5673 5673 5674 5674 5674 5674 5674 5673 5673 5673 5673 5672 5672 5672 5672 5672 5671 5671 5670 5669 5668 5667 5666 5665
5607 5607 5607 5609 5611 5612 5613 5614 5615 5616 5617 5618 5619 5620 5621 5622 5623 5624 5625 5626 5628 5629 5630 5631 5633 5634 5636 5638 5641 5643 5644 5646 5647 5649 5650 5652 5653 5655 5656 5657 5658 5659 5660 5661 5662 5663 5664 5665 5665 5665 5665 5665 5666 5666 5666 5666 5667 5667 5667 5667 5667 5667 5667 5668 5668 5669 5669 5669 5669 5669 5669 5668 5668 5668 5668 5668 5668 5667 5667 5666 5666 5665 5664 5663 5662 5661 5660
5604 5604 5605 5605 5607 5609 5610 5612 5613 5614 5616 5617 5618 5619 5620 5621 5621 5622 5622 5623 5625 5626 5627 5628 5629 5631 5633 5634 5636 5638 5640 5642 5643 5645 5646 5648 5649 5651 5652 5653 5654 5655 5656 5657 5658 5659 5660 5660 5660 5660 5660 5661 5660 5660 5660 5660 5661 5662 5661 5661 5661 5662 5662 5663 5663 5663 5664 5664 5664 5663 5663 5663 5663 5663 5663 5663 5663 5663 5662 5661 5660 5659 5658 5658 5657 5655 5654
5602 5603 5603 5604 5605 5606 5608 5609 5610 5612 5613 5614 5615 5616 5617 5618 5619 5619 5620 5621 5623 5624 5624 5625 5626 5628 5629 5630 5632 5634 5636 5638 5639 5641 5642 5644 5645 5646 5647 5648 5649 5650 5651 5652 5654 5655 5655 5655 5655 5655 5656 5656 5655 5655 5655 5656 5656 5656 5656 5656 5656 5657 5657 5657 5658 5658 5658 5659 5659 5658 5658 5658 5658 5658 5658 5658 5658 5658 5657 5656 5655 5654 5653 5652 5651 5650 5649
5600 5600 5601 5602 5603 5605 5605 5607 5608 5609 5611 5612 5613 5613 5614 5615 5616 5617 5618 5619 5621 5622 5623 5624 5624 5625 5626 5627 5628 5630 5632 5633 5635 5637 5638 5639 5640 5642 5643 5643 5645 5645 5646 5648 5649 5650 5650 5650 5650 5650 5651 5651 5651 5650 5650 5650 5650 5650 5651 5651 5652 5652 5652 5652 5653 5653 5653 5653 5653 5653 5653 5653 5653 5653 5653 5653 5653 5653 5651 5651 5651 5650 5648 5647 5647 5646 5645
5598 5598 5599 5600 5601 5602 5603 5604 5605 5606 5607 5608 5609 5610 5611 5612 5613 5614 5615 5617 5618 5619 5620 5621 5622 5623 5623 5624 5625 5626 5628 5629 5630 5632 5633 5635 5636 5637 5637 5638 5639 5640 5641 5643 5644 5644 5645 5645 5645 5645 5646 5646 5646 5646 5645 5646 5646 5646 5646 5646 5647 5647 5647 5647 5647 5648 5648 5648 5648 5648 5648 5648 5648 5648 5648 5648 5648 5647 5646 5646 5646 5645 5644 5643 5642 5641 5640
5595 5595 5596 5597 5598 5598 5599 5600 5601 5602 5604 5605 5606 5607 5608 5609 5610 5611 5612 5613 5615 5616 5617 5618 5619 5619 5620 5621 5622 5623 5624 5624 5626 5627 5628 5630 5631 5631 5632 5633 5634 5635 5636 5637 5638 5638 5639 5639 5640 5640 5641 5641 5641 5641 5641 5641 5641 5641 5641 5641 5642 5642 5642 5642 5642 5643 5643 5643 5643 5642 5643 5643 5643 5642 5642 5642 5642 5642 5641 5641 5641 5640 5639 5638 5637 5636 5635
5592 5592 5593 5593 5593 5594 5594 5596 5597 5598 5599 5601 5602 5603 5605 5606 5607 5608 5609 5610 5611 5612 5613 5614 5615 5615 5616 5617 5618 5618 5619 5620 5621 5622 5623 5625 5626 5627 5627 5628 5629 5630 5631 5632 5632 5633 5633 5634 5634 5635 5636 5636 5636 5637 5636 5636 5636 5636 5636 5636 5638 5638 5637 5637 5638 5638 5638 5637 5637 5637 5638 5638 5638 5637 5637 5637 5637 5637 5636 5636 5636 5635 5634 5632 5631 5631 5630
5589 5590 5590 5590 5590 5590 5590 5592 5593 5593 5594 5596 5598 5599 5600 5602 5603 5604 5605 5606 5607 5607 5608 5609 5610 5611 5612 5612 5613 5614 5615 5615 5617 5618 5619 5620 5621 5622 5622 5623 5624 5625 5626 5626 5627 5628 5628 5629 5629 5630 5631 5631 5631 5632 5632 5632 5632 5632 5631 5632 5633 5633 5632 5632 5633 5633 5632 5632 5632 5632 5633 5633 5632 5632 5632 5632 5632 5632 5631 5631 5630 5629 5628 5627 5625 5625 5624
5586 5586 5587 5588 5588 5588 5588 5589 5589 5590 5591 5592 5594 5595 5596 5597 5599 5600 5601 5602 5603 5603 5604 5605 5606 5607 5607 5608 5609 5609 5610 5611 5613 5614 5614 5615 5616 5617 5618 5619 5619 5620 5621 5621 5622 5623 5624 5624 5625 5626 5626 5626 5626 5627 5627 5627 5627 5627 5627 5627 5628 5628 5627 5627 5628 5627 5627 5627 5627 5627 5627 5627 5627 5627 5627 5627 5627 5626 5626 5626 5625 5624 5623 5621 5620 5619 5619
5583 5584 5585 5585 5585 5586 5586 5586 5586 5587 5588 5589 5590 5591 5592 5593 5595 5596 5597 5598 5599 5600 5600 5601 5602 5603 5603 5604 5605 5606 5607 5608 5609 5610 5611 5611 5612 5613 5614 5614 5615 5615 5616 5617 5618 5619 5619 5620 5620 5621 5621 5620 5621 5621 5621 5621 5621 5622 5622 5622 5622 5623 5623 5623 5623 5623 5622 5622 5622 5622 5622 5622 5622 5622 5622 5622 5622 5621 5621 5620 5619 5619 5618 5617 5615 5614 5614
5581 5581 5581 5582 5582 5583 5583 5583 5584 5584 5585 5586 5587 5587 5588 5589 5590 5592 5593 5594 5595 5596 5597 5597 5598 5599 5599 5600 5601 5602 5603 5604 5605 5606 5607 5607 5608 5609 5610 5610 5611 5611 5612 5612 5613 5614 5614 5615 5616 5616 5616 5616 5616 5617 5617 5617 5617 5618 5618 5618 5618 5618 5619 5619 5618 5618 5618 5618 5618 5618 5618 5618 5618 5618 5617 5617 5616 5616 5615 5614 5614 5614 5613 5612 5610 5609 5608
5577 5578 5578 5579 5580 5580 5580 5581 5581 5582 5582 5583 5584 5585 5585 5586 5587 5588 5589 5590 5591 5592 5593 5594 5595 5595 5596 5596 5597 5598 5599 5600 5601 5601 5602 5603 5604 5604 5605 5606 5607 5607 5607 5608 5609 5609 5610 5610 5611 5611 5612 5612 5612 5612 5612 5612 5612 5613 5613 5613 5614 5614 5614 5614 5614 5614 5614 5614 5614 5613 5613 5613 5613 5612 5612 5611 5611 5610 5609 5609 5608 5608 5608 5607 5606 5605 5604
5574 5575 5575 5576 5577 5577 5578 5578 5579 5579 5580 5580 5581 5582 5582 5583 5584 5585 5586 5587 5588 5588 5589 5590 5590 5591 5592 5593 5593 5594 5595 5595 5596 5597 5598 5598 5599 5600 5600 5601 5602 5603 5603 5604 5604 5605 5605 5605 5606 5607 5607 5607 5608 5608 5608 5608 5608 5609 5609 5609 5609 5609 5609 5609 5608 5608 5609 5609 5609 5608 5608 5608 5607 5607 5607 5606 5605 5605 5604 5603 5603 5603 5602 5602 5601 5600 5599
5571 5571 5572 5573 5574 5574 5574 5575 5575 5576 5577 5577 5578 5579 5579 5580 5581 5582 5582 5583 5584 5584 5585 5586 5586 5587 5588 5588 5589 5590 5590 5591 5591 5592 5593 5594 5594 5595 5595 5596 5598 5598 5598 5599 5600 5600 5600 5601 5601 5602 5602 5603 5603 5604 5604 5603 5604 5604 5604 5604 5604 5604 5604 5604 5604 5603 5604 5604 5604 5604 5603 5602 5602 5601 5601 5601 5600 5600 5600 5599 5599 5598 5598 5597 5596 5595 5594
5568 5568 5569 5570 5570 5570 5570 5571 5572 5572 5573 5573 5574 5575 5576 5577 5577 5578 5579 5579 5580 5581 5581 5582 5582 5583 5584 5584 5585 5585 5586 5587 5587 5588 5588 5589 5590 5590 5590 5592 5593 5594 5593 5594 5595 5595 5596 5596 5597 5597 5597 5598 5598 5598 5599 5599 5599 5599 5599 5599 5599 5599 5599 5599 5598 5598 5598 5598 5598 5598 5598 5597 5597 5597 5596 5596 5595 5595 5595 5595 5594 5594 5593 5592 5591 5590 5589
5564 5564 5565 5566 5566 5566 5567 5568 5568 5568 5568 5569 5570 5571 5572 5573 5573 5574 5575 5575 5576 5577 5577 5578 5578 5579 5579 5580 5580 5581 5582 5582 5583 5583 5584 5584 5585 5585 5586 5587 5588 5588 5588 5589 5590 5590 5590 5591 5592 5592 5592 5592 5593 5593 5593 5593 5593 5593 5593 5594 5594 5594 5594 5593 5593 5593 5593 5592 5592 5592 5592 5592 5592 5592 5591 5591 5591 5590 5590 5590 5590 5589 5588 5587 5586 5585 5584
5561 5561 5562 5562 5562 5563 5564 5565 5565 5564 5565 5566 5566 5567 5568 5569 5569 5570 5571 5571 5572 5573 5573 5574 5574 5574 5575 5576 5576 5577 5577 5577 5578 5578 5579 5579 5580 5580 5581 5582 5583 5583 5584 5584 5585 5585 5585 5586 5586 5586 5587 5587 5587 5587 5588 5587 5587 5588 5588 5588 5589 5589 5588 5588 5587 5587 5587 5587 5587 5587 5587 5587 5587 5587 5587 5586 5586 5586 5586 5585 5585 5584 5583 5583 5582 5581 5580
5558 5559 5559 5559 5559 5560 5561 5561 5561 5561 5561 5562 5563 5563 5564 5565 5566 5566 5566 5567 5567 5568 5568 5569 5569 5570 5570 5571 5571 5572 5572 5573 5573 5574 5574 5574 5575 5575 5576 5577 5577 5578 5579 5579 5580 5580 5580 5581 5581 5581 5582 5582 5582 5582 5582 5582 5582 5582 5583 5583 5583 5583 5583 5583 5583 5583 5582 5582 5582 5582 5582 5582 5582 5582 5582 5582 5582 5581 5581 5581 5580 5579 5579 5578 5577 5576 5575
5555 5556 5556 5556 5556 5557 5557 5557 5557 5557 5558 5558 5559 5560 5560 5561 5561 5562 5562 5562 5563 5563 5564 5564 5565 5565 5566 5566 5567 5567 5567 5568 5568 5569 5569 5569 5570 5570 5571 5571 5572 5573 5573 5574 5575 5575 5575 5575 5576 5576 5576 5576 5576 5576 5576 5577 5577 5577 5578 5578 5578 5578 5578 5578 5578 5578 5578 5578 5578 5578 5578 5578 5578 5577 5577 5577 5577 5577 5576 5576 5575 5575 5574 5573 5573 5572 5571
5552 5552 5552 5552 5552 5553 5553 5554 5554 5554 5554 5555 5555 5556 5556 5556 5557 5557 5558 5558 5558 5559 5559 5560 5560 5560 5561 5561 5562 5562 5562 5563 5563 5564 5564 5564 5565 5565 5566 5566 5567 5567 5568 5569 5569 5570 5570 5570 5570 5570 5570 5571 5571 5571 5571 5571 5572 5572 5573 5573 5573 5573 5574 5574 5573 5573 5573 5574 5574 5574 5573 5573 5573 5573 5573 5573 5573 5572 5572 5571 5571 5570 5569 5569 5568 5568 5567
5547 5548 5548 5548 5549 5549 5549 5550 5550 5550 5551 5551 5551 5551 5552 5552 5553 5553 5554 5554 5554 5554 5555 5555 5555 5556 5556 5557 5557 5557 5558 5559 5559 5559 5559 5559 5560 5560 5561 5561 5562 5562 5563 5563 5564 5564 5564 5565 5565 5565 5565 5565 5566 5566 5566 5567 5568 5568 5568 5568 5569 5569 5569 5569 5569 5569 5569 5569 5569 5569 5569 5569 5569 5569 5568 5568 5568 5567 5567 5566 5566 5565 5565 5565 5564 5563 5563
5543 5544 5544 5544 5545 5545 5545 5546 5546 5546 5547 5547 5548 5547 5548 5548 5549 5549 5549 5549 5549 5550 5550 5551 5551 5552 5552 5552 5553 5553 5554 5554 5554 5554 5554 5554 5555 5555 5556 5556 5557 5557 5558 5558 5558 5559 5559 5559 5560 5560 5560 5561 5561 5562 5562 5563 5563 5564 5564 5564 5565 5565 5565 5565 5565 5565 5565 5565 5565 5564 5564 5564 5564 5564 5564 5563 5563 5562 5562 5562 5561 5561 5561 5560 5559 5559 5558
5538 5540 5540 5540 5540 5541 5541 5542 5542 5542 5542 5543 5543 5543 5544 5544 5545 5545 5545 5545 5545 5545 5546 5546 5547 5547 5548 5548 5549 5549 5549 5549 5549 5549 5550 5550 5550 5551 5551 5552 5552 5553 5553 5553 5554 5554 5555 5555 5555 5556 5556 5556 5557 5557 5558 5558 5559 5559 5560 5560 5560 5560 5560 5560 5560 5560 5560 5560 5560 5560 5559 5559 5559 5559 5559 5558 5558 5558 5557 5557 5557 5557 5556 5556 5555 5554 5554
5535 5536 5536 5536 5536 5537 5537 5537 5538 5538 5538 5539 5539 5539 5539 5540 5540 5540 5540 5540 5541 5541 5542 5542 5542 5543 5544 5544 5545 5545 5545 5545 5545 5545 5545 5546 5546 5546 5547 5547 5547 5548 5548 5549 5549 5550 5550 5551 5551 5552 5552 5552 5553 5553 5554 5554 5555 5555 5555 5555 5555 5555 5556 5555 5555 5555 5555 5555 5555 5555 5555 5555 5554 5554 5554 5554 5554 5553 5553 5553 5552 5552 5552 5551 5551 5550 5550
5531 5531 5531 5531 5532 5532 5533 5534 5534 5534 5535 5535 5535 5535 5536 5536 5536 5536 5536 5536 5537 5537 5537 5537 5538 5539 5540 5540 5540 5541 5541 5541 5541 5541 5541 5541 5541 5542 5542 5543 5543 5543 5544 5544 5545 5545 5546 5546 5547 5547 5548 5548 5549 5549 5550 5550 5550 5550 5551 5551 5551 5551 5551 5551 5550 5550 5550 5550 5550 5550 5550 5550 5550 5550 5550 5549 5549 5549 5549 5549 5548 5548 5547 5547 5547 5546 5545